Location: Pedholt
(56.0260°N, 10.2097°E)
Time: 06:29:22
(UTC+00:00)

Vanguard 3 - Pass Details

Date: 04 August 2021
Orbit: 510 x 3260 km, 33.4° (Epoch: 26 September)

Event Time Altitude Azimuth Distance (km) Brightness Sun altitude
Rises 20:54:23 0° 263° (W) 6,490 12.2 -10.4°
Reaches altitude 10° 20:59:32 10° 252° (WSW) 5,785 11.7 -10.8°
Maximum altitude 21:12:51 25° 206° (SSW) 4,976 10.8 -11.8°
Enters shadow 21:25:10 13° 164° (SSE) 5,791 10.8 -12.7°
